Temperature
18 18 18 18 18 18 18 18 18 18 18 17 17 17 18 18 18 18 18 18 18 18 18 18 18 18 18 18 18 18 17 17 17 17 18 18 18 18 18 18 18 18 18
18 18 18 18 18 18 18 18 18 18 17 17 17 17 17 17 17 17 18 18 18 18 17 17 17 17 17 17 17 17 17 17 17 17 17 17 18 18 17 17 17 17 17
18 18 18 18 18 18 18 18 18 18 17 17 17 17 17 17 17 17 17 17 17 17 17 17 17 17 17 17 17 17 17 17 17 17 17 17 17 17 17 17 17 17 17
18 18 18 18 18 18 18 18 18 17 17 17 17 17 17 17 17 17 17 17 17 17 17 17 17 17 17 17 17 17 17 17 17 17 17 17 17 17 17 17 17 17 17
18 18 18 18 18 18 18 18 17 17 17 17 17 17 17 17 17 17 17 17 17 17 17 17 17 17 17 17 17 17 17 17 17 17 17 17 17 17 17 17 17 17 17
18 18 18 18 18 18 18 17 17 17 17 17 17 17 17 17 17 17 17 17 17 17 17 17 17 17 17 17 17 17 17 17 17 17 17 17 17 17 17 17 17 17 17
18 18 18 18 18 18 17 17 17 17 17 17 17 17 17 17 17 17 17 17 17 17 17 17 17 17 17 17 17 17 17 17 17 17 17 17 17 17 17 17 17 17 17
18 18 18 18 17 17 17 17 17 17 17 17 17 17 17 16 16 16 16 16 17 16 16 16 16 17 17 17 17 17 17 17 17 17 17 17 17 17 17 17 17 17 17
18 18 18 17 17 17 17 17 17 17 17 17 17 16 16 16 16 16 16 16 16 16 16 16 16 16 16 16 16 16 16 16 17 17 16 16 16 16 16 16 16 16 17
18 18 18 18 17 17 17 17 17 17 17 17 16 16 16 16 16 16 16 16 16 16 16 16 16 16 16 16 16 16 16 16 16 16 16 16 16 16 16 16 16 16 16
18 18 18 18 17 17 17 17 17 17 16 16 16 16 16 16 16 16 16 16 16 16 16 16 16 16 16 16 16 16 16 16 16 16 16 16 16 16 16 16 16 16 16
18 18 18 18 17 17 17 17 17 16 16 16 16 16 16 16 16 16 16 16 16 16 16 16 16 16 16 16 16 16 16 16 16 16 16 16 16 16 16 16 16 16 15
18 18 18 18 17 17 17 17 16 16 16 16 16 16 16 16 16 16 16 16 16 16 16 16 16 16 16 16 16 16 16 16 16 16 16 16 16 16 16 15 15 15 15
18 18 18 18 17 17 17 17 16 16 16 16 16 16 16 16 16 16 16 16 16 16 16 16 15 15 15 15 15 15 15 16 15 15 15 16 16 16 15 15 15 15 15
18 18 18 17 17 17 17 17 16 16 16 16 16 16 16 16 16 16 16 16 16 16 16 16 15 15 15 15 15 15 15 15 15 15 15 15 15 15 15 15 15 15 15
18 18 18 17 17 17 17 17 16 16 16 16 16 16 16 16 16 16 16 16 16 15 15 15 15 15 15 15 15 15 15 15 15 15 15 15 15 15 15 15 15 15 15
18 18 17 17 17 17 17 16 16 16 16 16 16 16 16 16 16 16 16 15 15 15 15 15 15 15 15 15 15 15 15 15 15 15 15 15 15 15 15 15 15 15 14
18 18 17 17 17 17 16 16 16 16 16 16 16 16 16 15 15 15 15 15 15 15 15 15 15 15 15 15 15 15 14 14 15 15 15 15 15 15 15 14 14 14 14
18 18 17 17 17 17 16 16 16 16 16 16 15 15 15 15 15 15 15 15 15 15 15 15 15 15 15 15 14 14 14 14 14 14 14 14 14 14 14 14 14 14 14
18 18 17 17 17 17 16 16 16 16 15 15 15 15 15 15 15 15 15 15 15 15 15 15 14 14 14 14 14 14 14 14 14 14 14 14 14 14 14 14 14 14 14
18 18 17 17 17 17 16 16 16 16 15 15 15 15 15 15 15 15 15 15 14 14 14 14 14 14 14 14 14 14 14 14 14 14 14 14 14 14 14 14 14 14 14
18 18 17 17 17 17 16 16 16 15 15 15 15 15 15 14 14 14 14 14 14 14 14 14 14 14 14 14 14 14 14 14 13 14 14 14 14 14 14 14 14 14 14
17 17 17 17 17 16 16 16 15 15 15 15 15 15 14 14 14 14 14 14 14 14 14 14 14 14 14 14 14 14 14 13 13 13 13 13 13 13 13 13 13 13 13
17 17 17 17 16 16 16 15 15 15 15 15 15 15 14 14 14 14 14 14 14 14 14 14 14 14 14 14 14 14 14 14 13 13 13 13 13 13 13 13 13 13 13
17 17 17 16 16 16 16 15 15 15 15 15 14 14 14 14 14 14 14 14 14 14 14 14 14 14 14 14 14 14 14 14 14 13 13 12 13 13 13 13 13 13 13
17 17 16 16 16 16 15 15 15 15 15 14 14 14 14 14 14 14 14 14 14 14 14 14 14 14 14 14 14 14 14 14 13 13 13 12 12 12 12 12 12 12 12
Wind_Speed
2 2 7 8 8 8 9 9 10 10 11 11 11 11 11 11 11 11 11 11 11 11 11 11 10 10 11 11 10 10 10 10 10 10 10 10 9 8 8 8 7 7 8
5 5 8 8 8 8 8 9 9 10 10 10 11 11 11 11 10 10 10 11 11 10 10 10 10 10 10 10 10 10 10 9 9 9 9 9 9 8 8 8 7 6 8
7 7 8 8 8 8 8 8 9 9 9 10 10 10 10 10 10 10 10 10 10 10 10 10 10 10 10 10 10 10 10 10 10 9 9 7 7 8 8 7 7 7 7
8 8 9 9 9 8 8 8 9 9 9 9 9 9 9 9 9 9 9 9 9 10 9 10 10 10 10 9 10 10 11 11 10 9 7 6 6 8 8 8 8 7 7
7 8 10 10 9 8 8 8 8 8 8 8 8 8 8 9 8 8 8 8 9 9 9 9 9 9 9 9 10 10 11 11 10 9 7 6 6 8 8 8 8 8 7
6 8 10 10 9 8 8 8 7 7 7 7 7 8 8 8 8 7 8 8 8 9 9 9 9 9 9 9 10 10 11 10 10 8 7 6 6 8 8 9 8 8 7
6 7 9 10 9 8 8 7 7 7 7 6 7 7 7 7 7 7 7 8 8 8 8 9 9 9 9 9 9 10 11 10 9 7 6 6 6 7 8 9 8 8 8
7 6 7 9 9 9 8 7 7 6 6 6 6 6 6 6 7 7 7 8 8 8 8 8 8 9 9 9 9 10 10 9 8 7 6 6 8 9 9 9 9 8 9
6 5 5 6 8 8 8 7 6 5 5 5 5 5 5 5 6 6 7 7 7 7 7 7 7 8 8 8 9 10 11 10 8 6 6 6 8 9 9 10 10 10 10
5 4 3 4 5 5 5 6 6 5 5 4 4 4 5 5 5 6 6 6 6 6 6 6 6 7 7 7 8 10 10 9 7 6 5 6 8 9 10 10 11 11 10
4 3 3 3 4 4 5 5 5 6 5 5 4 4 5 5 4 4 5 5 5 5 5 5 6 6 6 7 8 9 9 7 7 6 5 7 8 9 10 10 10 10 10
4 3 3 3 3 4 4 5 4 4 4 3 3 4 4 4 4 4 4 4 4 4 5 5 5 5 6 6 7 8 7 7 6 5 6 8 9 10 10 10 10 10 10
4 4 4 4 3 4 3 4 3 3 3 2 2 4 4 4 4 4 3 3 4 4 4 5 5 6 5 5 6 7 7 6 6 5 6 8 9 9 10 10 10 10 11
5 4 4 4 4 4 4 3 3 3 3 2 2 4 4 3 3 3 2 2 3 3 3 4 4 6 6 6 6 6 6 6 6 6 6 8 9 9 10 10 10 10 10
5 4 4 5 4 4 4 3 3 3 3 3 3 4 5 3 2 2 2 2 3 4 3 3 4 5 6 6 7 7 6 7 7 7 7 9 9 9 10 10 10 10 10
5 5 4 5 4 5 4 3 3 3 3 4 4 4 5 5 3 3 2 3 3 4 4 4 4 5 4 5 5 5 5 6 7 7 7 8 10 10 9 9 9 10 10
5 4 5 5 5 5 4 3 3 3 4 4 4 5 6 6 5 4 3 2 3 5 5 5 5 5 4 5 4 4 4 5 6 6 6 7 8 9 9 9 10 9 9
6 5 5 6 6 5 4 4 3 4 4 4 4 5 6 6 6 5 3 2 4 5 5 3 3 4 4 4 3 3 3 4 4 5 6 6 6 7 8 9 9 9 9
6 6 5 5 5 5 4 4 4 5 4 4 5 5 5 6 6 6 3 3 5 5 3 3 3 3 3 3 3 3 3 2 2 4 4 5 6 6 7 8 9 9 9
6 6 6 5 5 5 4 4 3 4 3 4 4 4 5 5 6 6 4 4 5 4 4 3 4 3 3 2 4 4 3 3 2 2 3 4 5 6 6 7 8 7 9
5 5 5 5 4 4 3 3 2 2 1 2 2 4 5 5 6 5 4 3 4 4 3 3 3 4 3 2 4 4 4 4 4 3 3 3 4 4 6 6 6 6 6
5 5 5 5 5 4 3 3 3 3 2 1 2 3 4 5 5 5 4 3 3 3 4 3 3 2 1 2 2 2 2 4 4 4 3 2 2 4 4 5 6 6 6
5 5 5 5 5 4 4 3 3 3 2 2 2 1 1 3 4 4 4 3 3 3 3 2 3 3 2 1 1 3 3 2 1 3 3 3 3 3 3 4 5 5 6
5 5 4 4 4 4 5 5 5 3 2 2 2 1 1 3 4 4 3 3 3 2 3 2 2 2 3 1 1 1 2 3 3 1 2 3 3 3 2 3 4 6 6
5 5 5 4 4 4 4 5 5 3 2 1 1 2 2 1 2 3 3 3 3 2 2 2 2 2 2 2 1 1 2 2 2 3 1 1 2 2 1 2 3 4 5
3 4 5 5 4 3 4 4 5 5 3 3 2 2 1 1 1 2 3 3 3 2 2 2 2 3 2 2 2 2 2 2 2 2 2 2 1 1 2 2 2 3 4
Wind_Direction
200 177 112 101 94 89 87 87 83 82 82 82 82 81 82 80 80 80 78 77 76 76 76 76 74 73 73 75 75 76 80 84 88 90 89 89 91 96 98 98 94 89 97
167 147 117 108 101 95 92 92 89 85 84 84 85 84 82 81 82 80 80 79 78 77 76 75 72 71 72 73 73 75 77 81 86 87 85 84 85 88 95 100 99 95 96
147 141 125 115 109 103 98 97 95 89 87 86 87 86 83 82 83 81 80 79 79 79 77 76 73 71 73 70 69 73 77 82 82 82 76 73 82 88 93 96 98 97 99
143 143 131 126 119 113 106 101 99 94 90 88 89 88 85 83 82 80 79 80 80 80 78 77 76 74 71 69 69 71 75 79 78 75 72 67 74 87 93 95 94 93 94
137 139 137 133 126 119 113 108 104 99 95 93 91 88 87 85 83 84 82 84 83 81 78 77 76 73 70 72 73 71 76 75 77 71 72 69 76 86 89 93 91 89 90
141 144 144 140 135 129 123 117 112 107 103 100 95 90 89 88 86 86 87 86 87 85 82 79 76 74 73 75 76 73 77 77 75 71 72 74 83 91 91 91 91 86 85
147 151 149 146 141 135 130 125 120 114 110 104 99 94 91 90 90 90 88 88 89 88 85 82 77 75 76 77 78 76 80 78 75 70 70 74 86 95 95 91 88 85 82
148 152 153 149 146 142 137 131 125 119 115 110 101 96 94 96 93 91 92 92 90 88 85 82 78 77 78 78 78 79 79 75 71 65 65 76 86 94 95 91 87 86 83
137 141 148 152 153 153 148 143 136 131 124 116 104 100 100 104 101 99 97 96 94 89 86 80 76 80 78 77 77 76 76 73 62 59 71 80 89 92 92 89 88 87 85
123 134 147 151 157 163 158 148 147 141 130 118 103 97 104 108 111 107 103 102 99 93 85 74 72 80 75 73 76 75 75 72 63 60 65 82 89 91 91 90 89 88 85
118 131 134 137 147 163 161 142 136 133 125 110 97 90 93 95 106 109 106 105 104 94 79 69 70 75 68 68 71 71 73 71 67 63 68 85 90 92 93 92 91 89 87
140 146 141 146 136 135 129 124 126 128 121 109 102 96 98 97 104 108 101 98 92 79 63 61 64 61 56 57 65 72 77 77 70 64 73 83 89 92 94 94 91 88 87
159 143 143 151 130 121 105 114 112 112 115 109 102 105 105 98 99 96 89 69 61 63 55 50 52 51 57 69 77 80 82 81 73 65 73 84 90 93 94 94 92 89 88
134 131 138 140 126 123 111 109 111 105 109 110 111 115 109 99 97 100 93 82 74 69 61 55 61 60 66 79 88 88 84 83 74 68 71 84 89 90 91 92 92 92 91
134 133 135 131 124 118 107 110 107 104 107 105 98 112 120 111 113 110 101 91 78 76 76 77 79 75 70 76 86 90 87 84 79 76 76 84 88 88 89 89 92 92 92
144 146 136 127 128 117 117 115 97 90 100 94 86 92 112 117 116 105 93 80 77 82 85 91 92 87 76 76 73 77 87 95 87 81 75 74 78 83 88 89 90 90 90
147 142 137 140 128 122 122 115 95 93 89 83 81 90 102 107 108 105 97 85 82 87 87 84 78 78 78 75 69 67 78 91 94 87 81 75 71 74 82 86 88 90 94
143 141 142 134 126 125 122 111 97 93 90 80 81 87 96 98 100 102 102 90 89 88 87 82 78 78 72 73 68 58 67 79 89 91 86 85 81 76 73 79 84 89 99
149 146 134 130 130 130 123 110 100 87 79 79 80 82 88 91 98 100 100 95 91 82 76 88 80 92 86 77 77 62 53 65 74 89 88 89 89 84 78 77 79 86 96
142 139 133 129 125 123 114 99 84 79 73 68 72 78 88 90 97 99 97 91 93 87 75 77 83 72 84 90 85 66 44 39 59 70 88 84 90 94 84 78 73 76 87
135 133 134 131 129 120 117 115 104 103 86 74 74 84 94 98 101 100 101 92 94 100 104 104 94 81 66 78 81 54 32 33 42 38 60 76 78 85 84 79 74 72 76
146 147 147 147 147 143 147 152 147 142 127 132 91 83 98 101 107 114 113 114 109 104 101 103 104 97 78 78 108 96 48 17 15 26 36 71 74 76 78 81 78 76 76
146 155 158 156 151 150 142 121 98 74 62 56 74 98 92 114 114 114 122 126 130 130 139 139 130 126 132 37 99 136 137 182 327 3 21 47 63 66 66 77 82 82 83
168 157 147 147 148 150 139 136 139 142 160 197 178 161 156 134 127 128 133 136 140 142 145 155 135 138 140 156 353 52 141 148 145 95 360 20 48 64 65 83 88 88 90
159 153 146 134 136 143 141 147 149 157 180 179 148 137 140 146 152 154 158 153 153 152 160 149 128 133 146 159 166 128 91 86 108 139 159 3 28 24 47 81 94 92 98
137 140 138 135 138 147 145 157 163 167 167 153 159 164 169 172 185 177 169 171 171 163 164 161 150 150 158 151 152 152 151 149 159 142 155 165 148 347 26 60 99 107 109
Height
1533 1532 1531 1529 1528 1527 1527 1526 1525 1525 1524 1524 1524 1523 1523 1523 1523 1523 1523 1523 1522 1522 1522 1522 1522 1522 1522 1521 1521 1521 1521 1521 1521 1521 1521 1521 1521 1521 1521 1521 1521 1521 1521
1533 1532 1531 1530 1529 1528 1527 1527 1526 1526 1525 1525 1525 1524 1524 1524 1524 1524 1524 1523 1523 1523 1523 1523 1523 1523 1522 1522 1522 1522 1522 1522 1522 1522 1522 1522 1522 1522 1522 1521 1521 1521 1521
1533 1532 1532 1531 1530 1529 1529 1528 1527 1527 1526 1526 1526 1525 1525 1525 1525 1525 1524 1524 1524 1524 1524 1524 1523 1523 1523 1523 1523 1523 1523 1523 1523 1523 1523 1522 1522 1522 1522 1522 1522 1521 1521
1533 1533 1532 1531 1531 1530 1530 1529 1528 1528 1527 1527 1527 1526 1526 1526 1525 1525 1525 1525 1525 1525 1524 1524 1524 1524 1524 1524 1524 1523 1524 1524 1523 1523 1523 1523 1523 1523 1522 1522 1522 1522 1521
1534 1534 1533 1532 1532 1531 1531 1530 1529 1529 1528 1528 1527 1527 1527 1526 1526 1526 1526 1525 1525 1525 1525 1525 1525 1525 1525 1525 1525 1524 1524 1525 1524 1524 1524 1524 1523 1523 1523 1522 1522 1522 1521
1534 1534 1533 1533 1532 1532 1531 1531 1530 1529 1529 1529 1528 1528 1527 1527 1527 1526 1526 1526 1526 1526 1526 1526 1526 1526 1526 1526 1526 1525 1525 1525 1525 1525 1525 1524 1524 1524 1523 1523 1523 1522 1522
1535 1534 1534 1533 1533 1533 1532 1532 1531 1531 1530 1530 1529 1529 1528 1528 1528 1527 1527 1527 1527 1527 1527 1527 1527 1527 1527 1527 1527 1527 1526 1526 1526 1526 1525 1525 1525 1524 1524 1523 1523 1523 1522
1535 1534 1534 1534 1534 1533 1533 1532 1532 1532 1531 1531 1530 1530 1529 1529 1529 1528 1528 1528 1528 1528 1528 1528 1528 1528 1528 1528 1528 1528 1528 1527 1527 1527 1526 1526 1526 1525 1525 1524 1523 1523 1523
1535 1535 1535 1534 1534 1534 1534 1533 1533 1532 1532 1531 1531 1530 1530 1530 1529 1529 1529 1529 1529 1529 1529 1529 1529 1529 1529 1529 1529 1529 1529 1528 1528 1527 1527 1527 1526 1526 1525 1525 1524 1523 1523
1536 1535 1535 1535 1535 1534 1534 1534 1533 1533 1533 1532 1532 1531 1531 1530 1530 1530 1530 1530 1530 1530 1530 1530 1530 1530 1530 1530 1530 1530 1530 1530 1529 1529 1528 1528 1527 1527 1526 1526 1524 1524 1524
1536 1536 1536 1535 1535 1535 1534 1534 1534 1533 1533 1532 1532 1532 1532 1531 1531 1531 1531 1531 1531 1531 1531 1531 1531 1532 1532 1532 1532 1531 1531 1531 1531 1530 1530 1529 1529 1528 1527 1527 1526 1525 1525
1536 1536 1536 1535 1535 1535 1535 1534 1534 1534 1533 1533 1533 1532 1532 1532 1532 1532 1532 1532 1532 1532 1532 1532 1532 1533 1533 1533 1533 1533 1532 1532 1532 1531 1531 1530 1530 1529 1528 1528 1527 1526 1526
1536 1536 1536 1535 1535 1535 1535 1534 1534 1534 1534 1534 1533 1533 1533 1533 1533 1533 1533 1533 1533 1533 1533 1533 1533 1533 1534 1534 1534 1534 1534 1533 1533 1533 1532 1532 1531 1530 1529 1529 1528 1528 1528
1536 1536 1536 1535 1535 1535 1535 1534 1534 1534 1534 1534 1534 1534 1533 1533 1533 1533 1534 1534 1534 1534 1534 1534 1534 1534 1534 1535 1535 1535 1535 1534 1534 1533 1533 1533 1532 1531 1531 1530 1530 1529 1529
1536 1536 1536 1536 1535 1535 1535 1534 1534 1534 1534 1534 1534 1534 1534 1534 1534 1534 1534 1535 1535 1535 1535 1535 1535 1535 1536 1536 1536 1536 1536 1535 1535 1534 1534 1534 1533 1533 1532 1531 1531 1531 1530
1535 1536 1536 1536 1535 1535 1535 1535 1534 1534 1534 1534 1534 1534 1534 1534 1534 1535 1535 1535 1535 1535 1536 1536 1536 1537 1537 1537 1537 1537 1537 1537 1537 1536 1535 1535 1535 1534 1533 1533 1532 1532 1532
1535 1536 1536 1535 1535 1535 1535 1535 1535 1535 1534 1534 1534 1534 1534 1535 1535 1535 1535 1535 1536 1536 1536 1537 1537 1538 1538 1538 1538 1538 1538 1538 1538 1538 1537 1536 1536 1536 1535 1534 1534 1533 1533
1534 1535 1535 1535 1535 1535 1535 1535 1535 1535 1535 1535 1535 1535 1535 1535 1535 1535 1536 1536 1536 1536 1537 1537 1538 1538 1539 1539 1539 1540 1540 1539 1539 1539 1539 1538 1538 1537 1537 1536 1535 1535 1534
1533 1534 1534 1535 1535 1535 1535 1535 1535 1535 1535 1535 1535 1535 1535 1535 1535 1535 1536 1536 1536 1537 1537 1537 1538 1539 1539 1540 1540 1540 1541 1541 1541 1540 1540 1540 1539 1539 1538 1538 1537 1537 1536
1532 1533 1534 1534 1535 1535 1535 1535 1535 1535 1535 1535 1535 1535 1535 1535 1535 1535 1536 1536 1536 1537 1537 1538 1538 1539 1540 1540 1541 1541 1541 1541 1542 1541 1541 1541 1541 1540 1540 1539 1539 1538 1538
1531 1532 1533 1533 1534 1534 1534 1534 1535 1535 1535 1535 1535 1535 1535 1535 1535 1535 1535 1536 1536 1537 1537 1538 1539 1539 1540 1541 1541 1542 1542 1542 1542 1542 1542 1542 1542 1542 1541 1541 1540 1540 1540
1530 1531 1532 1532 1533 1533 1533 1534 1534 1534 1534 1535 1535 1535 1535 1535 1535 1535 1535 1536 1536 1537 1537 1538 1539 1539 1540 1541 1541 1541 1542 1544 1543 1543 1543 1543 1543 1542 1542 1542 1541 1541 1541
1529 1530 1531 1531 1532 1532 1533 1533 1534 1534 1534 1534 1534 1534 1534 1535 1535 1535 1535 1536 1536 1536 1537 1537 1538 1539 1539 1540 1541 1542 1542 1542 1543 1544 1543 1543 1543 1543 1542 1542 1542 1542 1542
1528 1529 1530 1530 1531 1532 1532 1532 1533 1533 1533 1533 1533 1534 1534 1534 1534 1535 1535 1535 1536 1536 1536 1537 1538 1538 1539 1539 1540 1541 1542 1541 1542 1543 1544 1544 1544 1543 1543 1542 1542 1542 1542
1527 1528 1529 1529 1530 1531 1531 1532 1532 1532 1532 1533 1533 1533 1533 1534 1534 1534 1535 1535 1535 1535 1536 1536 1537 1537 1538 1538 1539 1540 1540 1540 1541 1541 1542 1543 1543 1543 1543 1543 1542 1542 1543
1526 1527 1528 1529 1529 1529 1530 1530 1531 1531 1531 1531 1532 1532 1532 1533 1533 1533 1534 1534 1535 1535 1535 1536 1536 1537 1537 1538 1538 1538 1539 1539 1540 1540 1541 1542 1542 1543 1543 1543 1543 1543 1543